Location: Treviso
(45.6669°N, 12.2430°E)
Time: 20:52:00
(UTC+02:00)

ISS - Pass Details

Date: 29 May 2017
Orbit: 400 x 408 km, 51.6° (Epoch: 20 July)

Event Time Altitude Azimuth Distance (km) Brightness Sun altitude
Rises 22:09:51 0° 269° (W) 2,343 0.7 -11.3°
Reaches altitude 10° 22:12:03 10° 279° (W) 1,481 -0.2 -11.6°
Maximum altitude 22:15:08 34° 346° (NNW) 697 -2.0 -11.9°
Drops below altitude 10° 22:18:13 10° 55° (NE) 1,480 -1.0 -12.3°
Enters shadow 22:22:32 -7° 69° (ENE) 3,193 0.5 -12.8°
